Regional Weather Roundup
Issued by NWS New Orleans/Baton Rouge, LA

Home | Current Version | Previous Version | Text Only | Print | Product List | Glossary On
Versions: 1 2 3 4 5 6 7 8 9 10 11 12 13 14 15 16 17 18 19 20 21 22 23 24 25 26 27 28 29 30 31 32 33 34 35 36 37 38 39 40 41 42 43 44 45 46 47 48 49 50
269
ASUS44 KLIX 222214
RWRLIX
NEW ORLEANS REGIONAL WEATHER ROUNDUP
NATIONAL WEATHER SERVICE NEW ORLEANS LA
500 PM CDT TUE AUG 22 2017

NOTE: "FAIR" INDICATES FEW OR NO CLOUDS BELOW 12,000 FEET WITH NO
      SIGNIFICANT WEATHER AND/OR OBSTRUCTIONS TO VISIBILITY.
      SKY/WX - SKY CONDITION AND SIGNIFICANT WEATHER.
      TMP - AIR TEMPERATURE.     DP    - DEWPOINT TEMPERATURE.
      RH  - RELATIVE HUMIDITY.   PRES  - PRESSURE.
      HI  - HEAT INDEX.          WCI   - WIND CHILL INDEX.

*  THESE STATIONS ARE NOT NWS OR FAA STATIONS AND ARE NOT UNDER
   NWS QUALITY CONTROL.

LAZ038-040-048-061>063-065>067-069-222300-
SOUTHEAST LOUISIANA

CITY           SKY/WX    TMP DP  RH WIND       PRES   REMARKS
N.O. INTL ARPT PTSUNNY   88  75  65 CALM      30.02S HX  97
N.O. LAKEFRONT MOSUNNY   88  75  65 SE6       30.02F HX  97
N.O. DOWNTOWN*   N/A     89  74  60 VRB3      30.03F HX  98
RESERVE*         N/A     85  74  70 S3        30.04S
SLIDELL        CLOUDY    86  75  69 E3        30.02S HX  95
BATON ROUGE    TSTM      76  72  87 S17       30.03S FOG
BOOTHVILLE     MOSUNNY   86  78  77 E12       30.02F HX  98
BELLE CHASSE   PTSUNNY   88  79  74 E6        30.02F HX 103
BOGALUSA*        N/A     87  75  66 S7        30.03F HX  97
GALLIANO*      MOCLDY    88  73  62 E5        30.02S HX  95
NEW ROADS*     TSTM      75  71  88 S18G26    30.05R VSB 1/2
GONZALES*        N/A     78  73  85 NW9       30.05R
HAMMOND*       CLOUDY    82  72  69 S6        30.03S
HOUMA*         PTSUNNY   86  73  66 E5        30.03S
PORT FOURCHON* PTCLDY    88  73  62 VRB3      30.01F HX  96

$$

MSZ070-080>082-222300-
SOUTHERN MISSISSIPPI

CITY           SKY/WX    TMP DP  RH WIND       PRES   REMARKS
MCCOMB         PTSUNNY   90  71  53 S6        30.02F HX  96
GULFPORT       CLOUDY    85  75  72 SE9       30.02F
BILOXI         MOSUNNY   84  75  73 S5        30.02F
PASCAGOULA     MOSUNNY   84  75  74 SE5       30.02F
STENNIS ARPT*  MOSUNNY   86  75  70 SE6       30.02  HX  95

$$

COASTAL OBSERVATIONS
LAKE AND NEARSHORE STATIONS

STATION/POSITION TIME  TEMP    WIND        PRES    WAVE
                       AIR SEA DIR/SP/G            HT/PER
                 (UTC) (F)     (DEG/KT/KT) (MB)    (FT/S)
PASCAGOULA       2148   85     140/  5/  7 1016.3
WAVELAND YACHT   2148   83 87  140/  9/ 10 1016.6
GRAND ISLE       2148   88 89  130/  4/  6 1016.6
SOUTHWEST PASS   2148   88      80/  7/  9   N/A
NEW CANAL        2148   87 88  100/  3/  4 1016.6
SHELL BEACH      2148   86 90  100/  8/ 11 1016.4

OFFSHORE STATIONS

STATION/POSITION TIME  TEMP    WIND        PRES    WAVE
                       AIR SEA DIR/SP/G            HT/PER
                 (UTC) (F)     (DEG/KT/KT) (MB)    (FT/S)
64 S DAUPHIN ISL 2150   80 88   CALM  /  2 1016.6    2/ 7

$$





USA.gov is the U.S. government's official web portal to all federal, state and local government web resources and services.